Location: Unspecified
(27.9380°N, 0.0000°E)
Time: 02:53:02
(UTC+00:00)

SL-14 DEB - Visible Passes

Search period start: 04 April 2026 00:00
Search period end: 14 April 2026 00:00
Orbit: 825 x 842 km, 82.5° (Epoch: 28 March)

Date Brightness Start Highest point End Pass type
(mag) Time Alt. Az. Time Alt. Az. Time Alt. Az.
4 Apr ? 19:57:32 10° S 20:03:05 89° W 20:08:40 10° N visible
5 Apr ? 19:40:31 10° S 19:46:01 73° E 19:51:34 10° N visible
6 Apr ? 19:23:34 10° S 19:28:58 57° E 19:34:24 10° NNE visible
6 Apr ? 21:09:25 10° W 21:11:38 12° WNW 21:13:53 10° NW visible
7 Apr ? 19:06:41 10° SSE 19:11:56 45° E 19:17:12 10° NNE visible
7 Apr ? 20:51:09 10° WSW 20:54:27 16° WNW 20:57:46 10° NW visible
8 Apr ? 18:49:54 10° SSE 18:54:53 35° E 18:59:54 10° NNE visible
8 Apr ? 20:33:16 10° SW 20:37:16 20° WNW 20:41:18 10° NNW visible
9 Apr ? 20:15:35 10° SW 20:20:05 25° WNW 20:24:39 10° NNW visible
10 Apr ? 19:58:03 10° SW 20:02:56 32° W 20:07:52 10° NNW visible
11 Apr ? 19:40:37 10° SSW 19:45:47 40° W 19:51:00 10° NNW visible
12 Apr ? 19:23:17 10° SSW 19:28:39 51° W 19:34:04 10° N visible
13 Apr ? 19:06:01 10° SSW 19:11:32 65° W 19:17:03 10° N visible
